Alva, OK

12:00 AM CST on December 09, 2016 (GMT -0600)
Alva Regional

Weather History for KAVK - January, 2013

Change the Weather History Date:

Saturday, January 5, 2013

  Actual Average Record
Temperature  
Mean Temperature 36 °F -  
Max Temperature 46 °F 42 °F 70 °F (1956)
Min Temperature 26 °F 21 °F -6 °F (1959)
Degree Days  
Heating Degree Days 29    
Moisture  
Dew Point 26 °F    
Average Humidity 69    
Maximum Humidity 93    
Minimum Humidity 43    
Precipitation  
Precipitation 0.00 in - - ()
Sea Level Pressure  
Sea Level Pressure 30.20 in    
Wind  
Wind Speed 11 mph (WSW)    
Max Wind Speed 18 mph    
Max Gust Speed 22 mph    
Visibility 10 miles    
Events      
Averages and records for this station are not official NWS values.
T = Trace of Precipitation, MM = Missing Value Source: NWS Daily Summary

Daily Weather History Graph

Daily Weather History Graph

Search for Another Location

Airport or City:

Trip Planner

Search our weather history database for the weather conditions in past years. The results will help you decide how hot, cold, wet, or windy it might be!

Date:

Astronomy

Jan. 05, 2013 Rise Set
Actual Time 7:47 AM CST 5:32 PM CST
Civil Twilight 7:19 AM CST 6:01 PM CST
Nautical Twilight 6:46 AM CST 6:33 PM CST
Astronomical Twilight 6:15 AM CST 7:05 PM CST
Moon 1:01 AM CST (1/5) 12:19 PM CST (1/5)
Length of Visible Light 10h 42m
Length of Day
9h 45m
Last Quarter, 44% of the Moon is Illuminated
Jan 5
Last Quarter
Jan 11
New
Jan 18
First Quarter
Jan 26
Full
Feb 3
Last Quarter

Hourly Weather History & Observations

Time (CST) Temp. Windchill Dew Point Humidity Pressure Visibility Wind Dir Wind Speed Gust Speed Precip Events Conditions
12:15 AM 37.4 °F 29.3 °F 28.4 °F 70% 30.22 in 10.0 mi South 12.7 mph - N/A   Overcast
12:35 AM 37.4 °F 29.8 °F 28.4 °F 70% 30.21 in 10.0 mi South 11.5 mph - N/A   Overcast
12:55 AM 37.4 °F 30.8 °F 28.4 °F 70% 30.20 in 10.0 mi South 9.2 mph - N/A   Overcast
1:15 AM 37.4 °F 30.3 °F 28.4 °F 70% 30.20 in 10.0 mi South 10.4 mph - N/A   Overcast
1:35 AM 37.4 °F 29.3 °F 28.4 °F 70% 30.19 in 10.0 mi South 12.7 mph - N/A   Overcast
1:55 AM 37.4 °F 29.3 °F 28.4 °F 70% 30.19 in 10.0 mi South 12.7 mph - N/A   Overcast
2:15 AM 37.4 °F 30.3 °F 28.4 °F 70% 30.19 in 10.0 mi South 10.4 mph - N/A   Overcast
2:35 AM 35.6 °F 27.1 °F 28.4 °F 75% 30.18 in 10.0 mi South 12.7 mph - N/A   Overcast
2:55 AM 35.6 °F 28.0 °F 28.4 °F 75% 30.19 in 10.0 mi SSW 10.4 mph - N/A   Overcast
3:15 AM 35.6 °F 27.5 °F 30.2 °F 81% 30.18 in 10.0 mi South 11.5 mph - N/A   Overcast
3:35 AM 35.6 °F 28.0 °F 30.2 °F 81% 30.18 in 10.0 mi SSW 10.4 mph - N/A   Overcast
3:55 AM 35.6 °F 27.1 °F 30.2 °F 81% 30.18 in 10.0 mi SSW 12.7 mph - N/A   Overcast
4:15 AM 35.6 °F 27.5 °F 30.2 °F 81% 30.18 in 10.0 mi SSW 11.5 mph - N/A   Overcast
4:35 AM 35.6 °F 27.5 °F 30.2 °F 81% 30.17 in 10.0 mi SSW 11.5 mph - N/A   Overcast
4:55 AM 35.6 °F 28.0 °F 30.2 °F 81% 30.16 in 10.0 mi South 10.4 mph - N/A   Overcast
5:15 AM 35.6 °F 27.1 °F 30.2 °F 81% 30.16 in 10.0 mi South 12.7 mph - N/A   Overcast
5:35 AM 35.6 °F 27.1 °F 30.2 °F 81% 30.15 in 10.0 mi South 12.7 mph - N/A   Overcast
5:55 AM 35.6 °F 27.5 °F 30.2 °F 81% 30.15 in 10.0 mi South 11.5 mph - N/A   Overcast
6:35 AM 32.0 °F 23.0 °F 28.4 °F 87% 30.15 in 10.0 mi South 11.5 mph - N/A   Overcast
6:55 AM 32.0 °F 23.6 °F 28.4 °F 87% 30.14 in 10.0 mi South 10.4 mph - N/A   Overcast
7:15 AM 30.2 °F 21.9 °F 26.6 °F 86% 30.15 in 10.0 mi South 9.2 mph - N/A   Scattered Clouds
7:35 AM 28.4 °F 19.1 °F 26.6 °F 93% 30.15 in 10.0 mi South 10.4 mph - N/A   Partly Cloudy
7:55 AM 30.2 °F 21.9 °F 26.6 °F 86% 30.15 in 10.0 mi South 9.2 mph - N/A   Clear
8:35 AM 32.0 °F 22.5 °F 28.4 °F 87% 30.16 in 10.0 mi SSW 12.7 mph - N/A   Clear
8:55 AM 32.0 °F 23.6 °F 28.4 °F 87% 30.16 in 10.0 mi SSW 10.4 mph - N/A   Clear
9:15 AM 35.6 °F 28.0 °F 28.4 °F 75% 30.17 in 10.0 mi SSW 10.4 mph - N/A   Clear
9:35 AM 37.4 °F 28.9 °F 30.2 °F 75% 30.18 in 10.0 mi SW 13.8 mph - N/A   Clear
9:55 AM 39.2 °F 30.2 °F 28.4 °F 65% 30.18 in 10.0 mi SW 17.3 mph 20.7 mph N/A   Clear
10:15 AM 39.2 °F 29.8 °F 28.4 °F 65% 30.18 in 10.0 mi SW 18.4 mph - N/A   Clear
10:35 AM 41.0 °F 32.5 °F 28.4 °F 61% 30.19 in 10.0 mi SW 17.3 mph - N/A   Clear
10:55 AM 41.0 °F 32.8 °F 28.4 °F 61% 30.19 in 10.0 mi WSW 16.1 mph 20.7 mph N/A   Clear
11:15 AM 41.0 °F 33.1 °F 28.4 °F 61% 30.18 in 10.0 mi WSW 15.0 mph - N/A   Clear
11:35 AM 41.0 °F 35.2 °F 26.6 °F 57% 30.17 in 10.0 mi WSW 9.2 mph - N/A   Clear
11:55 AM 41.0 °F 34.3 °F 26.6 °F 57% 30.16 in 10.0 mi WSW 11.5 mph - N/A   Clear
12:15 PM 42.8 °F 38.6 °F 26.6 °F 53% 30.15 in 10.0 mi West 6.9 mph - N/A   Clear
12:35 PM 44.6 °F 38.8 °F 26.6 °F 49% 30.15 in 10.0 mi WSW 11.5 mph - N/A   Clear
12:55 PM 44.6 °F 39.7 °F 26.6 °F 49% 30.14 in 10.0 mi WSW 9.2 mph 18.4 mph N/A   Clear
1:35 PM 46.4 °F 41.5 °F 26.6 °F 46% 30.14 in 10.0 mi West 10.4 mph - N/A   Clear
1:55 PM 46.4 °F 41.1 °F 26.6 °F 46% 30.13 in 10.0 mi West 11.5 mph - N/A   Clear
2:15 PM 46.4 °F 41.1 °F 26.6 °F 46% 30.13 in 10.0 mi West 11.5 mph 17.3 mph N/A   Clear
2:55 PM 46.4 °F 41.9 °F 24.8 °F 43% 30.14 in 10.0 mi West 9.2 mph - N/A   Clear
3:15 PM 46.4 °F 41.9 °F 26.6 °F 46% 30.15 in 10.0 mi West 9.2 mph - N/A   Clear
3:35 PM 46.4 °F 41.1 °F 24.8 °F 43% 30.16 in 10.0 mi West 11.5 mph 17.3 mph N/A   Clear
4:15 PM 44.6 °F 37.4 °F 24.8 °F 46% 30.19 in 10.0 mi NW 16.1 mph 21.9 mph N/A   Clear
4:55 PM 41.0 °F 32.8 °F 23.0 °F 49% 30.21 in 10.0 mi NW 16.1 mph - N/A   Clear
5:15 PM 39.2 °F 32.0 °F 21.2 °F 49% 30.23 in 10.0 mi NW 11.5 mph - N/A   Clear
5:35 PM 37.4 °F 30.8 °F 21.2 °F 52% 30.23 in 10.0 mi NW 9.2 mph - N/A   Clear
5:55 PM 32.0 °F 26.4 °F 21.2 °F 64% 30.24 in 10.0 mi NW 5.8 mph - N/A   Clear
6:15 PM 32.0 °F 24.2 °F 19.4 °F 60% 30.25 in 10.0 mi NW 9.2 mph - N/A   Clear
6:35 PM 32.0 °F 23.0 °F 23.0 °F 69% 30.26 in 10.0 mi NW 11.5 mph - N/A   Clear
6:55 PM 32.0 °F 23.6 °F 21.2 °F 64% 30.26 in 10.0 mi NW 10.4 mph - N/A   Clear
7:15 PM 32.0 °F 23.6 °F 21.2 °F 64% 30.26 in 10.0 mi NW 10.4 mph - N/A   Clear
7:35 PM 28.4 °F 20.4 °F 21.2 °F 74% 30.28 in 10.0 mi NW 8.1 mph - N/A   Clear
7:55 PM 28.4 °F 22.2 °F 21.2 °F 74% 30.28 in 10.0 mi WNW 5.8 mph - N/A   Clear
8:15 PM 28.4 °F 19.7 °F 21.2 °F 74% 30.28 in 10.0 mi WNW 9.2 mph - N/A   Clear
8:35 PM 26.6 °F 17.5 °F 21.2 °F 80% 30.28 in 10.0 mi NW 9.2 mph - N/A   Clear
8:55 PM 30.2 °F 22.6 °F 23.0 °F 75% 30.28 in 10.0 mi NW 8.1 mph - N/A   Clear
9:15 PM 26.6 °F 21.2 °F 23.0 °F 86% 30.29 in 10.0 mi WNW 4.6 mph - N/A   Clear
9:35 PM 26.6 °F 17.5 °F 23.0 °F 86% 30.29 in 10.0 mi NW 9.2 mph - N/A   Clear
9:55 PM 30.2 °F 22.6 °F 23.0 °F 75% 30.30 in 10.0 mi NW 8.1 mph - N/A   Clear
10:15 PM 28.4 °F 19.1 °F 23.0 °F 80% 30.30 in 10.0 mi NW 10.4 mph - N/A   Clear
10:35 PM 30.2 °F 21.3 °F 23.0 °F 75% 30.30 in 10.0 mi NW 10.4 mph - N/A   Clear
10:55 PM 30.2 °F 20.8 °F 23.0 °F 75% 30.31 in 10.0 mi NW 11.5 mph - N/A   Clear
11:15 PM 32.0 °F 22.1 °F 24.8 °F 75% 30.32 in 10.0 mi NW 13.8 mph - N/A   Clear
11:35 PM 33.8 °F 24.8 °F 24.8 °F 70% 30.33 in 10.0 mi NW 12.7 mph - N/A   Clear
11:55 PM 33.8 °F 24.8 °F 24.8 °F 70% 30.33 in 10.0 mi NW 12.7 mph - N/A   Clear